Wind_Speed
16 16 16 15 15 15 15 15 14 14 15 14 14 14 13 13 14 14 14 13 13 13 12 12 12 12 12 12 11 11 11 11 11 10 10 10 11 12 10 10 10 9 9 8 7 7 5 3 3 4 2 2 4 3 3 4 5 5 3 4 3 3 4 3 4 4 4 3 4 5 5 5 3 3 3 4 6 6 3 5 3 4 6 4 5
17 17 17 16 16 16 15 15 15 15 15 15 14 15 14 13 14 14 14 14 13 13 13 12 12 12 12 12 11 11 11 11 10 10 10 10 12 12 10 9 10 9 8 8 7 5 4 3 3 3 3 2 3 3 2 3 5 5 3 4 4 4 5 3 3 4 4 4 5 5 5 5 3 3 3 4 7 6 6 7 4 3 4 3 5
18 18 17 17 17 17 16 16 16 16 16 16 15 15 15 14 15 15 14 14 14 14 13 12 13 12 11 11 11 11 11 10 10 10 9 9 11 11 10 10 9 8 8 7 6 4 4 4 2 2 3 3 3 3 2 2 3 4 3 4 4 3 5 4 3 3 4 5 4 4 5 5 3 3 3 4 5 6 8 6 6 5 4 3 5
18 19 18 17 18 17 16 16 17 17 16 16 16 16 16 15 15 16 15 15 14 15 14 12 13 14 12 11 10 11 11 9 9 9 9 9 9 9 9 10 8 6 6 5 4 5 7 6 4 3 4 3 3 2 2 1 2 4 4 4 2 2 3 6 4 2 5 6 5 5 5 4 4 2 4 3 4 3 6 6 5 5 3 3 5
18 19 19 18 18 18 17 17 17 17 17 17 17 17 16 16 16 16 16 16 15 17 16 14 16 16 15 14 12 11 11 9 9 9 9 9 9 8 8 9 8 6 6 6 5 7 8 7 6 4 3 3 3 2 1 2 3 3 4 2 1 2 3 4 4 3 2 6 6 6 4 1 2 3 3 1 4 3 2 2 2 3 2 1 3
18 18 19 19 18 18 17 17 18 17 18 18 17 17 16 17 17 17 17 16 16 17 17 16 17 16 16 16 13 12 12 10 10 10 9 9 9 8 8 7 8 7 6 7 6 7 7 7 7 5 2 4 3 4 4 3 3 2 2 2 3 4 3 3 3 3 2 2 5 5 3 2 2 5 6 2 2 4 3 2 1 3 2 1 5
19 18 19 19 18 19 18 17 18 18 18 18 18 17 17 18 18 18 19 17 17 18 17 17 17 16 15 14 13 13 12 10 9 9 9 9 8 8 8 7 8 7 6 6 7 8 7 7 7 5 3 4 3 4 4 2 2 2 2 4 5 4 2 2 3 2 3 3 3 4 3 3 2 4 4 2 1 2 2 2 2 4 2 1 5
20 20 19 20 19 19 18 18 17 17 18 18 18 18 19 19 18 18 19 18 18 19 18 17 18 17 16 13 12 12 11 11 10 9 9 8 7 7 8 7 8 8 7 7 8 7 7 6 7 6 5 4 4 3 3 4 4 3 4 4 4 3 1 2 2 2 3 4 2 2 4 4 2 0 2 3 2 2 2 1 2 3 1 2 4
21 21 20 20 20 19 19 18 17 17 18 18 19 19 19 20 20 19 20 19 19 20 19 17 18 18 17 14 13 13 11 11 11 10 10 9 8 7 8 8 8 9 9 8 8 8 7 7 6 6 5 5 5 4 4 4 4 5 6 4 3 3 2 2 2 2 4 5 2 2 4 5 4 2 2 3 2 2 2 2 4 3 2 3 5
22 22 21 20 21 20 19 19 18 17 17 18 18 19 20 20 21 20 20 20 19 20 20 18 18 18 18 16 14 14 12 11 12 11 11 12 11 10 11 10 8 8 9 9 9 8 8 7 6 5 5 5 5 6 5 5 5 5 5 4 5 5 4 3 3 2 5 5 4 5 6 7 5 3 3 2 2 3 3 3 5 4 2 4 5
23 22 22 21 20 21 20 19 19 18 17 18 18 19 20 20 21 21 21 20 20 21 21 19 18 18 18 17 15 15 13 12 12 12 12 13 12 11 11 11 8 7 8 9 9 8 8 8 6 5 6 6 5 5 5 5 5 4 3 6 7 7 6 5 5 5 6 6 6 7 8 10 7 4 4 3 2 3 4 5 5 4 5 4 3
24 23 22 22 21 21 22 20 20 19 18 18 18 19 20 20 21 22 21 21 20 21 21 20 19 18 18 18 17 15 14 13 13 13 13 13 12 11 11 10 10 9 9 9 9 9 9 9 8 7 7 7 5 5 6 6 6 5 5 6 7 6 7 7 6 6 6 7 7 7 8 10 10 8 5 4 3 1 4 6 5 4 5 3 3
23 24 23 23 23 23 23 21 20 20 19 19 18 19 20 20 21 23 23 22 21 21 21 21 20 18 18 18 17 17 15 14 14 14 13 13 12 12 12 11 11 11 10 10 9 9 10 10 10 9 9 9 8 8 9 8 8 7 6 6 6 6 6 7 8 8 7 8 8 8 8 9 11 10 7 4 2 2 5 7 5 5 5 5 5
23 25 25 25 25 24 23 22 21 21 20 19 19 19 19 19 21 22 23 22 22 21 21 21 20 19 18 18 18 18 17 16 15 13 13 13 13 12 12 11 11 11 11 11 10 9 10 11 11 10 10 10 9 9 9 8 9 9 8 7 6 6 6 8 9 8 8 9 8 8 10 10 11 10 8 7 2 2 4 5 5 7 7 7 6
25 25 26 26 25 25 24 23 22 22 21 21 20 19 19 19 21 22 23 23 23 22 21 21 21 19 18 18 18 18 18 17 15 14 13 13 13 12 12 12 11 11 11 11 11 11 10 10 11 11 10 10 9 8 8 8 8 8 9 9 7 7 7 8 9 8 9 9 8 9 11 10 11 9 9 10 6 5 4 4 7 8 8 7 6
26 26 27 27 26 26 25 23 23 22 22 22 21 20 19 19 20 21 22 23 23 23 22 22 21 20 19 19 19 18 17 16 15 15 14 14 13 12 13 13 11 11 11 12 12 12 12 11 11 11 11 11 10 9 9 8 9 9 9 10 9 7 7 8 8 8 9 9 9 10 11 10 11 10 10 11 9 8 7 6 8 8 8 8 7
29 28 28 28 27 26 26 24 24 23 23 23 22 21 20 19 20 21 22 22 22 23 22 21 21 20 20 20 19 18 17 16 15 15 14 14 14 13 13 13 12 12 11 11 12 13 13 13 11 11 11 11 11 10 10 10 11 10 9 11 11 8 8 9 10 9 9 10 9 9 10 10 10 10 10 10 9 8 8 7 8 8 7 7 8
30 28 28 29 28 27 26 25 24 24 24 24 23 22 21 20 19 20 21 21 22 22 21 21 21 20 20 20 20 19 18 17 15 15 14 14 14 14 13 12 13 13 12 12 12 13 14 14 14 13 13 13 12 11 11 11 12 11 10 11 12 10 10 12 11 10 9 10 10 9 10 10 10 10 10 10 8 8 8 8 7 7 6 6 7
28 27 28 29 28 27 27 26 25 24 23 23 23 22 21 20 19 19 20 21 21 21 21 20 20 19 19 19 20 20 18 17 16 15 15 15 15 14 13 13 13 13 13 14 13 13 13 14 15 15 14 14 13 12 12 13 12 11 11 11 11 11 12 12 11 10 10 10 10 10 11 11 10 10 11 10 9 8 9 8 8 8 7 6 7
26 26 27 28 28 27 27 26 24 23 23 23 22 23 22 20 20 19 19 19 20 20 20 20 20 19 19 19 19 20 19 19 18 17 16 15 15 15 14 14 14 14 14 15 15 14 14 14 14 14 14 15 14 13 13 13 13 12 12 11 10 11 13 13 11 10 9 10 10 10 11 11 10 10 11 11 10 9 9 9 8 9 7 7 8
25 28 29 29 30 29 27 26 24 22 22 23 22 23 22 20 20 20 18 18 19 19 19 20 20 19 19 19 19 20 20 19 19 18 17 16 16 15 15 14 14 14 14 15 15 15 15 15 14 14 15 15 15 15 14 13 14 14 13 13 13 13 15 14 12 11 11 10 11 12 12 12 12 12 12 11 11 10 10 9 9 8 7 8 9
23 27 29 29 30 29 28 27 25 22 22 23 22 22 21 20 19 19 19 18 18 18 19 19 19 20 19 19 19 19 20 20 20 19 19 18 17 16 16 16 15 15 15 15 15 15 15 16 15 15 15 15 16 16 16 14 14 15 14 13 14 15 16 14 13 13 12 11 12 13 13 13 12 12 12 11 12 11 11 11 10 8 8 8 8
19 20 25 28 28 27 26 26 26 23 22 22 21 20 20 20 18 18 18 18 17 17 18 18 18 19 19 19 19 18 19 20 20 20 20 19 18 17 17 17 16 16 16 16 16 15 15 15 16 16 16 16 16 16 16 15 16 16 15 14 13 14 13 13 13 13 12 12 12 12 13 12 11 12 12 11 11 11 12 12 11 10 10 10 9
17 19 21 23 24 23 23 24 24 21 20 20 20 19 19 19 19 17 18 18 18 16 16 17 18 18 18 19 19 18 18 19 20 20 20 20 19 18 18 18 17 17 16 16 16 16 15 15 16 16 16 16 17 17 17 17 16 17 17 16 15 15 14 13 12 12 11 12 12 12 13 12 12 12 12 12 12 12 12 11 11 11 10 9 10
14 20 19 17 20 22 20 20 20 19 18 19 20 19 18 18 19 18 18 19 19 18 16 16 17 17 18 19 18 18 19 19 19 19 20 20 19 19 18 18 18 18 17 17 16 16 16 16 16 16 16 16 17 17 18 18 17 17 17 17 16 15 15 15 14 14 13 13 13 13 13 13 12 12 12 12 12 13 12 11 11 11 10 9 10
11 17 16 13 16 21 20 18 17 17 17 18 19 20 19 19 19 19 19 20 21 21 19 18 17 17 18 19 18 18 21 22 20 19 19 19 19 19 19 18 18 18 18 18 17 17 16 16 16 17 17 17 17 18 18 18 18 17 17 16 15 14 14 14 14 14 14 14 13 13 13 13 12 12 12 12 12 13 13 12 11 11 11 11 11
8 13 14 12 14 16 17 17 15 14 15 17 18 19 19 18 19 19 18 19 21 21 22 23 20 18 18 20 20 20 23 24 23 21 19 18 19 18 18 19 19 19 19 19 18 18 17 16 17 17 18 18 17 18 18 19 19 17 17 16 15 14 14 14 14 14 13 13 13 12 13 14 14 14 14 12 13 15 14 13 12 11 12 12 11
3 8 11 12 14 14 13 13 13 12 14 15 15 16 16 17 16 16 17 18 19 20 20 22 22 20 18 19 21 22 22 22 23 23 21 20 21 21 21 20 19 19 19 19 19 19 18 17 17 18 18 18 18 18 18 19 19 17 17 16 15 15 15 14 13 13 13 13 13 12 12 13 14 15 14 13 15 16 16 15 14 13 13 12 12
2 3 6 7 10 13 13 12 13 12 12 12 13 13 14 16 16 17 18 19 19 18 18 18 20 21 20 20 23 24 22 21 23 24 23 23 23 24 24 21 17 17 19 19 19 19 18 18 18 18 18 18 19 19 18 19 19 17 16 16 15 15 15 15 15 13 13 13 14 14 12 11 13 15 13 13 14 14 15 15 13 13 15 14 14
1 2 3 3 4 8 11 12 13 14 12 12 13 13 14 15 15 17 18 19 19 19 19 18 18 19 20 22 24 24 22 22 24 24 25 25 25 25 25 23 19 15 15 17 18 18 19 18 18 19 19 17 18 20 21 21 20 17 16 16 15 14 15 18 17 15 15 15 14 14 12 13 14 14 13 13 13 13 14 14 13 14 17 17 17
11 7 7 6 5 2 3 6 8 11 13 14 14 15 16 17 17 17 17 18 19 20 20 19 18 17 18 21 23 22 21 22 24 24 24 25 26 26 26 25 22 18 16 17 16 16 18 18 18 18 18 18 20 22 23 22 21 19 18 17 18 17 17 18 16 16 16 15 14 13 13 14 15 13 13 14 14 14 14 14 15 16 17 17 17
18 15 13 11 9 7 5 3 2 5 8 11 13 14 15 15 17 18 18 19 20 21 21 21 20 19 18 21 23 21 20 22 23 23 23 22 23 25 25 26 25 22 21 21 18 16 17 18 18 18 18 19 21 22 21 19 19 19 18 17 19 19 16 15 14 15 15 14 14 13 13 15 15 13 13 14 15 15 15 15 16 17 17 17 17
18 18 16 12 10 8 6 5 3 2 3 6 10 12 12 12 13 14 14 15 16 17 19 20 21 21 21 22 23 22 21 21 22 23 22 21 21 23 23 25 27 25 24 25 23 20 19 18 18 18 16 17 18 18 18 17 17 16 15 16 19 17 15 14 14 13 13 13 13 13 13 14 15 13 13 14 14 15 16 17 17 16 17 17 17
17 17 14 12 11 8 5 4 2 1 1 3 6 9 11 11 11 12 12 12 13 15 16 17 19 20 22 22 23 23 22 22 22 23 23 22 22 22 22 23 25 26 26 25 23 22 22 20 19 18 16 16 16 15 15 16 16 16 15 16 19 19 17 16 14 12 12 13 14 15 15 16 15 14 14 14 14 15 16 18 17 17 18 18 18
18 17 14 12 11 9 6 4 2 2 0 1 3 6 7 8 9 11 12 12 14 16 18 19 19 20 21 21 21 22 23 23 23 25 25 25 23 22 22 23 25 25 25 23 22 22 22 21 21 19 19 20 19 16 14 14 14 16 17 17 19 20 20 18 16 14 15 16 17 17 17 17 17 17 17 17 17 17 17 17 17 18 20 21 20
15 15 13 11 10 9 8 5 4 3 1 1 2 3 4 5 6 7 7 9 11 14 16 17 18 18 18 19 20 21 22 22 23 25 25 27 26 24 22 22 23 24 23 23 22 22 22 21 19 17 16 18 19 18 18 18 17 17 18 19 21 22 21 20 19 19 18 18 18 18 18 18 19 19 18 17 18 18 18 18 19 21 22 22 21
12 12 12 11 10 9 9 8 7 6 5 4 3 3 4 4 6 6 7 9 10 11 12 14 15 16 16 16 17 19 19 21 23 25 25 26 27 26 24 22 21 22 22 23 24 24 22 20 19 17 16 16 15 16 18 20 20 20 20 21 22 21 19 19 20 21 21 19 18 18 19 19 19 18 15 14 16 18 19 20 22 23 23 22 20
12 12 12 12 10 9 10 10 10 10 10 8 5 5 6 6 6 7 8 8 8 8 9 11 12 13 14 15 16 16 18 20 22 23 24 26 26 26 25 23 20 21 22 22 24 25 22 19 19 19 19 18 17 15 15 17 19 19 20 21 20 17 15 16 16 17 17 18 17 16 17 18 18 18 17 17 19 20 21 22 23 23 23 23 21
14 14 13 12 12 11 12 13 14 14 12 10 8 6 6 5 3 3 4 4 4 5 7 9 10 11 13 13 13 13 15 17 19 21 23 26 28 28 27 24 20 20 21 20 21 21 21 20 20 21 21 21 21 19 19 19 19 19 20 21 20 17 15 15 14 11 11 13 14 15 16 17 19 20 21 20 21 21 22 23 21 20 21 21 20
13 14 14 15 16 15 15 15 16 16 15 12 11 10 10 9 6 4 4 4 2 2 3 6 8 10 11 11 11 11 12 13 16 17 18 18 21 26 27 24 21 19 18 18 17 18 19 19 20 21 21 23 23 21 20 20 19 18 20 20 17 15 16 17 18 15 13 12 13 14 14 14 17 20 20 20 20 21 22 22 21 21 21 21 21
13 14 15 17 18 18 18 17 17 17 16 16 17 19 19 17 14 13 12 10 7 4 2 1 3 4 6 7 8 9 8 8 9 11 12 11 12 17 21 21 20 18 17 17 18 18 19 19 19 20 20 21 21 20 19 19 18 17 18 16 13 12 14 16 17 17 15 12 11 12 13 14 15 17 18 19 21 22 23 24 25 25 26 25 23
13 14 14 16 17 18 19 19 18 18 18 18 22 24 24 22 22 21 18 15 12 10 8 6 5 4 3 2 3 3 2 1 1 4 7 8 8 11 14 15 16 16 16 16 16 16 17 17 17 18 19 19 20 19 18 18 17 17 17 16 14 14 15 15 15 16 16 13 10 11 14 17 18 19 19 20 21 22 22 24 26 27 27 27 25
14 13 14 15 15 16 17 17 18 19 19 20 23 25 25 24 24 21 18 16 16 15 13 12 11 11 11 10 10 10 9 7 6 3 3 5 6 8 10 12 13 14 13 13 14 15 16 15 15 15 16 16 17 17 17 16 16 16 16 16 16 16 16 15 15 14 16 16 15 15 18 18 17 17 17 18 18 19 20 21 22 24 25 25 25
15 14 14 15 15 16 17 16 17 18 19 20 21 23 24 24 24 22 20 18 17 16 16 16 16 15 14 14 14 13 12 12 12 10 8 6 5 5 7 8 8 8 10 11 12 13 13 13 12 12 12 12 13 14 13 13 13 14 14 15 15 15 13 12 10 9 10 13 14 15 14 12 10 10 12 14 15 16 17 17 18 19 20 20 21
14 14 14 15 15 16 16 17 17 17 17 17 18 19 19 20 20 21 21 22 21 20 19 18 18 17 15 15 15 14 15 16 16 15 14 13 12 11 9 7 6 4 5 7 8 8 8 8 8 9 9 9 9 9 9 9 9 10 11 11 11 10 8 6 4 4 5 7 8 8 8 7 8 8 9 10 11 11 11 12 13 14 15 15 16
14 13 13 14 15 16 16 17 17 16 16 15 15 17 18 16 15 16 19 21 23 23 23 21 20 18 16 16 17 17 16 16 16 16 17 17 16 16 16 15 13 11 9 7 7 6 5 5 5 5 5 5 4 4 4 4 5 6 6 6 6 6 5 3 1 1 3 5 6 7 8 9 8 8 8 7 7 7 8 9 9 8 8 10 11
14 14 14 14 15 16 16 16 16 15 15 14 14 16 17 15 13 13 14 17 19 20 21 21 20 18 17 17 18 18 16 16 16 15 15 15 14 13 14 14 14 13 12 10 8 7 6 5 3 4 4 4 3 2 2 3 3 3 3 4 4 3 1 0 1 2 4 5 5 7 8 9 10 9 8 7 6 6 6 7 6 5 5 5 6
15 15 15 15 16 16 16 16 15 15 14 14 14 13 13 12 11 10 11 14 16 16 17 18 18 17 17 16 15 15 15 15 14 13 13 13 13 12 11 12 11 10 9 8 7 5 5 3 2 3 3 3 2 1 1 2 2 1 0 1 2 1 2 3 4 4 3 2 4 8 9 10 12 12 11 11 10 7 7 7 7 8 9 9 9
15 15 15 16 16 15 15 15 15 14 14 14 14 12 11 10 10 10 11 12 13 13 12 12 13 13 14 13 13 12 12 12 11 10 11 11 11 11 10 9 9 8 7 7 6 4 2 1 1 2 3 2 1 1 1 2 2 2 3 3 2 2 4 6 6 5 4 5 7 9 7 7 9 10 9 9 9 7 7 7 7 7 8 8 9
14 13 14 15 14 14 15 14 14 13 13 14 13 12 11 10 9 9 10 10 10 9 10 10 10 10 10 11 10 10 10 10 9 9 9 10 10 10 9 8 8 7 6 6 5 3 1 1 1 1 1 1 0 0 1 2 3 3 4 4 5 5 6 8 9 9 9 9 8 6 5 4 5 6 7 8 7 7 7 7 6 6 5 5 6
12 12 13 13 13 13 14 13 13 13 13 13 12 12 11 10 10 9 9 10 9 9 9 10 9 9 10 9 9 9 9 9 9 9 9 9 10 9 9 8 8 7 7 7 6 5 4 3 2 2 1 1 2 2 2 3 4 5 5 6 6 7 8 8 10 10 10 8 6 5 5 5 5 6 7 8 7 7 7 7 6 7 7 7 6
Wind_Direction
165 168 165 163 163 160 159 159 159 157 158 157 154 155 156 157 158 156 154 155 154 151 149 151 152 151 153 153 152 150 150 151 150 152 152 155 165 165 164 167 168 172 174 177 181 167 161 185 191 156 132 186 160 153 194 206 198 192 218 225 204 253 263 254 245 230 233 215 183 209 204 183 198 200 209 242 217 209 255 266 296 330 303 330 360
167 169 167 165 165 162 160 161 161 161 163 161 159 159 156 159 162 159 159 158 155 156 154 156 157 154 155 156 155 155 153 153 153 156 156 160 169 168 169 172 173 179 180 183 187 170 162 182 200 175 161 206 192 175 215 205 193 196 221 240 232 251 257 260 258 236 231 230 222 218 203 203 235 233 223 218 223 239 246 244 263 290 284 327 349
169 170 171 168 166 164 163 164 164 165 167 165 164 162 158 163 166 162 162 160 159 161 158 157 157 154 155 156 156 157 155 155 157 157 158 165 173 174 175 178 178 184 185 184 181 171 183 185 186 213 198 198 206 202 194 174 189 195 221 246 237 261 257 238 253 265 269 275 261 227 208 209 208 237 272 237 227 228 209 228 289 279 265 327 348
174 172 173 173 169 168 167 167 167 167 169 169 168 165 163 169 171 167 164 162 165 165 157 157 160 157 155 154 155 157 157 159 160 158 159 167 173 177 184 184 175 181 187 171 180 208 202 182 166 217 230 199 202 216 174 160 202 197 223 238 226 287 250 209 196 258 296 303 285 249 232 205 191 262 307 245 220 221 202 219 273 276 263 341 358
180 177 175 176 173 171 169 170 169 170 173 172 172 170 168 174 175 172 167 164 170 167 159 164 167 163 160 158 154 156 159 161 164 165 165 168 173 179 190 190 172 176 194 173 191 227 210 191 182 191 237 215 192 225 221 222 214 204 233 225 190 277 250 208 188 176 304 314 291 265 264 238 212 285 323 217 213 259 278 191 201 311 339 317 312
185 183 180 178 176 173 171 173 172 172 176 174 175 173 171 175 177 176 171 167 173 172 166 169 171 169 168 166 161 161 164 167 170 171 171 173 178 180 187 192 181 182 199 185 194 226 214 207 201 182 233 240 203 211 223 228 211 191 228 197 194 235 230 209 209 195 194 283 283 276 274 271 294 325 334 334 233 255 310 14 311 319 16 262 260
188 189 185 180 179 177 174 177 176 174 177 175 175 175 172 176 178 179 175 171 175 175 172 170 171 173 172 170 170 170 171 171 171 170 175 181 183 183 181 191 195 186 198 207 208 224 218 210 212 191 203 251 245 223 215 225 228 209 213 199 200 216 210 212 229 223 204 215 265 300 297 280 323 346 329 305 269 268 308 15 317 297 343 288 250
190 190 188 183 182 182 178 178 179 176 176 176 176 175 174 177 180 180 178 175 177 180 178 174 175 176 172 173 175 175 175 174 173 169 175 185 183 179 179 195 209 189 189 222 222 222 221 214 220 209 198 227 242 239 236 235 230 236 238 217 211 218 205 237 219 199 261 269 252 282 295 291 274 275 287 268 278 328 2 37 344 328 337 223 215
194 191 189 187 184 184 182 180 180 179 177 176 177 175 174 179 182 183 183 180 182 185 183 179 181 179 174 176 179 177 177 179 177 173 177 184 180 180 183 193 217 203 191 215 221 215 221 220 221 218 210 222 230 226 233 234 230 245 245 217 212 233 223 254 225 183 277 296 292 267 276 277 277 283 297 270 250 324 353 329 323 356 62 222 217
197 195 190 189 186 185 185 182 181 180 178 176 177 175 175 179 184 186 186 184 186 188 186 183 185 185 181 182 184 181 180 183 184 183 186 188 186 192 196 192 204 213 205 218 224 216 223 224 220 232 231 229 233 224 224 240 248 255 253 230 225 225 208 231 262 250 267 276 276 289 282 270 277 282 272 244 225 276 309 323 327 353 3 264 238
197 197 192 190 189 186 185 184 182 179 178 177 178 177 177 180 185 188 188 187 189 190 188 188 188 188 189 188 189 188 185 184 186 189 194 196 193 196 205 201 196 206 212 226 231 221 228 229 215 227 242 237 239 238 234 244 245 231 244 261 258 245 226 226 248 256 264 274 271 273 273 269 274 273 265 271 265 285 321 322 320 328 325 296 272
197 196 194 191 190 189 186 184 183 179 179 179 178 179 179 181 186 189 190 191 193 193 191 193 193 193 195 195 194 193 190 189 189 193 197 199 198 197 203 206 202 204 208 218 224 217 227 236 220 214 232 235 230 237 236 233 232 215 212 252 267 260 252 251 255 251 255 272 272 267 271 279 291 298 291 287 285 355 345 312 297 295 305 318 326
199 197 194 193 192 190 188 185 183 181 182 181 179 180 180 183 186 188 192 193 195 195 193 194 196 198 200 199 198 196 194 194 195 197 199 198 200 202 205 208 207 208 209 212 218 214 221 235 230 217 225 232 221 224 229 223 229 229 224 244 254 252 259 260 260 261 263 272 279 279 280 286 294 303 313 303 290 331 292 281 295 304 300 313 324
200 199 194 195 193 191 190 187 184 183 184 182 180 181 182 185 188 189 193 195 195 197 197 197 196 199 203 203 202 201 198 198 199 201 202 203 203 205 208 212 212 212 212 213 214 212 217 232 236 227 230 238 233 232 237 234 234 234 235 249 251 252 263 260 261 268 271 274 280 276 271 275 282 294 311 303 307 27 307 288 317 321 310 312 325
202 200 196 197 194 191 191 187 186 186 185 184 183 182 183 185 189 192 195 196 196 197 198 200 199 198 202 205 205 207 205 203 202 203 204 207 208 208 210 210 213 216 215 215 214 211 211 224 238 238 236 243 243 243 247 250 254 245 241 250 248 251 268 272 272 276 275 277 284 280 275 280 286 290 297 299 320 358 328 315 326 320 319 325 332
204 202 197 197 195 192 192 189 188 188 188 188 185 183 185 186 190 195 199 199 199 199 198 201 202 201 203 205 204 207 209 208 208 209 208 209 210 212 214 212 211 214 215 216 217 215 212 218 232 239 241 245 244 245 243 241 255 256 249 255 253 252 267 273 273 276 281 282 281 282 284 287 292 295 296 304 321 324 309 311 320 316 323 333 332
201 203 197 196 195 193 192 190 189 189 189 189 187 187 187 188 190 194 198 200 201 202 200 199 201 203 207 208 205 205 208 209 212 214 212 213 214 214 216 217 215 215 215 218 220 221 221 220 224 230 241 248 245 247 247 240 249 255 253 258 260 259 261 264 270 273 276 280 281 285 291 291 293 296 299 306 313 314 310 309 312 316 323 327 327
199 199 195 194 194 193 192 192 191 190 192 189 188 189 189 190 192 194 197 197 200 202 200 200 201 202 207 211 208 207 209 209 213 216 215 216 219 218 218 220 221 220 218 218 219 223 227 226 224 221 229 242 243 241 246 246 250 254 251 257 262 261 256 258 268 274 274 280 284 285 287 287 292 296 300 305 304 305 309 309 311 313 313 315 318
203 195 192 193 193 192 191 193 192 190 191 190 188 189 191 193 194 195 198 197 198 200 199 201 202 202 205 210 210 209 210 211 213 216 216 218 220 221 221 221 222 222 221 219 216 218 225 231 233 229 227 238 243 239 241 247 251 251 247 253 262 269 268 266 269 274 277 281 283 285 286 285 290 298 299 297 297 297 299 305 309 302 300 304 304
203 195 193 193 193 193 191 193 194 191 189 189 189 190 193 195 195 197 199 198 198 199 200 202 203 204 206 208 211 212 212 213 213 215 217 219 221 222 223 223 222 221 221 223 221 218 221 227 233 233 230 234 239 237 238 244 249 249 244 242 247 258 267 270 268 264 267 272 275 277 281 283 286 293 295 295 298 297 293 295 297 297 299 298 292
201 200 199 198 195 193 190 191 195 194 189 188 190 191 193 194 195 198 199 197 198 198 200 202 203 206 208 208 210 212 213 214 215 217 219 220 222 223 223 224 224 223 222 224 226 224 223 225 228 229 229 231 233 232 230 235 243 249 247 243 241 245 255 264 267 264 261 263 268 269 273 280 283 285 288 292 295 294 291 289 287 292 296 289 288
203 203 200 197 193 189 187 189 196 196 188 188 191 190 192 195 196 198 198 198 200 200 201 203 204 207 208 210 211 212 214 215 216 218 221 222 223 223 223 223 224 224 224 224 227 228 228 228 229 230 230 230 231 233 231 230 235 245 248 246 248 253 260 264 263 264 264 262 264 269 274 279 282 284 286 287 289 289 289 288 283 288 296 287 283
199 202 199 195 188 185 186 188 197 199 187 187 192 190 191 196 198 199 199 199 201 202 201 202 205 209 210 211 212 213 215 216 216 219 221 222 223 223 224 224 225 227 227 226 228 230 232 231 231 233 233 231 232 234 235 233 233 241 245 241 241 248 257 262 263 264 266 265 264 265 269 273 273 276 278 280 284 285 286 289 285 287 294 291 286
197 200 196 191 182 179 182 183 190 193 184 184 191 190 190 195 198 201 202 202 204 207 207 205 207 210 212 213 214 216 218 218 218 220 221 223 224 225 225 225 226 227 228 229 230 231 232 233 234 235 234 234 234 234 237 238 237 240 243 243 240 240 242 246 252 255 257 259 261 262 263 265 264 267 271 275 278 280 283 286 285 287 292 291 291
206 201 190 182 173 169 170 174 179 182 181 182 188 191 192 195 198 200 201 202 203 206 209 209 211 212 213 216 217 220 223 222 222 224 225 225 225 226 226 227 229 228 228 229 230 232 233 234 235 237 237 236 236 236 238 239 239 241 243 245 245 245 245 244 245 248 251 252 255 259 261 261 262 265 268 271 274 278 281 282 283 285 281 276 282
212 200 185 171 166 163 164 169 173 178 184 188 193 197 199 200 201 200 202 207 212 212 210 208 210 213 218 221 219 220 223 224 225 228 229 230 230 230 229 229 229 229 229 228 229 231 233 232 234 235 237 238 239 240 240 239 239 240 240 242 244 246 247 247 248 249 251 252 255 260 264 265 262 261 264 268 272 275 279 281 286 286 279 275 278
211 197 186 170 164 164 165 170 174 178 185 192 196 200 202 203 203 203 206 213 221 223 219 216 215 213 220 226 224 223 225 227 229 230 230 230 231 232 235 234 232 231 230 228 228 228 229 231 234 236 236 238 239 240 241 240 238 237 236 238 241 244 246 247 249 250 250 253 255 257 263 267 263 259 263 270 272 271 273 275 275 275 278 278 272
218 195 186 172 166 165 163 165 172 180 188 196 199 200 203 204 203 203 203 208 218 225 226 225 223 218 219 226 230 233 233 232 233 234 235 232 227 227 229 229 230 231 230 229 227 226 227 230 232 236 236 236 238 239 240 241 240 236 234 235 237 241 245 246 248 251 251 252 252 251 258 268 266 261 265 270 270 269 271 272 271 270 276 278 271
246 196 188 181 177 181 182 180 184 188 192 200 206 207 211 212 210 210 209 210 218 226 229 230 229 226 223 223 231 242 244 238 233 235 237 234 231 231 228 229 237 237 231 231 229 224 227 230 231 236 238 236 237 238 239 240 240 237 235 236 240 243 245 244 244 246 248 249 253 256 259 264 265 265 268 271 268 266 267 273 280 278 275 272 271
109 161 164 162 171 192 201 201 202 203 203 206 212 217 222 223 221 221 221 220 222 228 233 236 236 235 231 229 236 245 247 242 237 236 236 235 235 238 236 241 256 253 234 233 234 228 228 229 232 237 238 237 238 237 236 237 237 238 238 239 242 242 244 248 246 244 249 253 258 263 263 263 265 264 266 267 265 260 261 268 275 275 272 269 269
66 76 86 93 90 109 186 201 207 209 210 213 216 221 227 229 228 226 225 226 227 231 235 237 238 239 236 235 239 244 244 241 239 238 238 237 237 240 240 242 249 248 235 232 234 234 234 233 234 238 239 239 238 236 237 241 245 245 241 243 245 240 244 255 256 252 256 259 260 260 261 265 268 264 263 268 267 262 260 261 262 264 266 267 268
60 59 60 74 81 78 97 135 188 211 216 221 221 222 226 228 230 229 229 230 232 235 238 239 240 241 240 239 240 242 243 242 240 239 240 240 238 240 240 239 239 238 236 235 236 238 239 238 237 240 241 239 239 240 240 243 254 254 243 245 250 244 244 256 258 255 257 257 256 258 260 266 271 267 264 269 269 264 262 262 263 265 267 267 268
60 56 47 53 66 69 82 105 120 160 220 235 235 235 235 231 228 228 230 231 232 235 241 244 244 242 240 240 242 244 244 243 241 240 239 239 239 239 238 238 236 235 236 239 241 243 244 240 237 242 249 245 242 247 246 240 247 253 246 247 251 247 244 247 245 247 251 252 254 259 261 266 272 271 268 271 273 271 270 269 268 270 269 266 265
60 58 43 40 51 51 44 59 86 134 196 246 249 246 246 244 239 237 238 237 235 234 238 243 246 245 243 243 244 245 246 245 245 245 243 241 242 241 238 236 235 233 234 238 241 246 249 248 244 251 267 267 257 255 250 239 238 243 243 247 251 249 247 245 240 240 246 250 254 260 265 270 274 274 271 271 274 276 276 274 273 275 273 268 265
57 58 48 40 48 54 44 38 37 37 71 247 258 251 247 247 244 242 243 242 239 237 239 243 247 249 251 251 250 249 247 247 248 247 245 243 242 240 236 231 229 228 230 233 238 245 249 250 251 254 262 268 266 260 250 241 239 240 240 246 251 252 251 248 243 243 247 254 259 264 270 274 275 274 273 272 273 274 274 273 274 276 274 272 271
56 56 52 41 43 53 54 51 48 45 70 170 211 228 236 239 238 238 238 242 242 241 243 246 248 250 252 253 256 255 251 249 248 247 246 243 241 238 234 230 227 226 227 226 229 237 243 246 250 253 256 263 264 256 249 247 246 244 244 248 250 251 251 248 245 245 246 253 262 267 269 270 269 268 270 270 270 270 270 270 271 270 269 270 272
63 62 58 49 47 52 49 46 48 54 65 82 118 160 177 200 218 220 219 229 240 244 248 250 250 252 251 249 251 253 251 250 247 244 244 243 240 239 238 234 229 225 225 223 224 231 237 241 244 248 253 257 252 246 247 248 245 245 249 254 255 255 254 251 251 252 251 253 261 265 265 265 263 261 261 259 259 263 268 266 263 263 265 266 265
72 67 63 58 57 60 61 57 54 55 58 63 84 136 162 176 195 211 215 220 227 234 240 245 247 249 249 248 251 254 256 255 248 243 247 248 245 243 241 237 229 222 220 222 226 230 232 234 237 242 246 245 240 243 249 248 244 247 254 259 259 258 258 257 260 261 254 249 252 254 254 253 253 256 259 257 257 264 268 264 260 262 265 264 261
71 69 68 67 67 68 68 65 59 58 62 65 77 112 143 147 152 197 216 219 229 239 246 250 252 252 250 252 257 260 261 258 249 245 250 250 246 242 237 232 226 222 218 219 225 230 229 229 234 236 239 243 247 251 254 252 251 253 257 260 261 258 259 263 270 273 265 255 250 247 248 251 253 259 263 263 263 267 268 265 264 265 265 261 259
80 82 76 70 73 74 69 65 64 64 66 68 76 91 99 98 97 96 85 75 54 339 288 273 269 263 255 252 254 257 261 259 252 250 254 251 239 230 225 222 220 217 214 213 216 221 222 224 231 234 237 244 251 255 255 255 256 254 255 261 266 263 261 265 270 274 276 272 258 246 244 246 251 258 264 267 267 267 267 267 266 265 264 261 259
89 91 83 75 75 74 71 70 70 70 71 75 83 88 88 86 86 81 73 68 64 57 35 331 300 283 267 255 251 256 266 267 260 259 262 257 230 213 212 215 214 209 208 212 214 219 223 225 231 236 237 242 249 252 254 255 255 253 256 263 267 261 257 259 263 266 270 276 273 260 251 243 246 256 263 265 265 264 266 268 267 264 264 265 263
94 94 93 88 81 76 74 73 73 74 76 79 84 85 83 80 77 74 71 69 70 68 69 75 84 91 102 141 168 167 161 174 214 247 247 237 215 202 202 208 209 205 206 209 210 215 223 227 231 234 235 238 243 248 252 255 258 261 264 266 266 262 259 258 260 263 266 271 275 268 257 250 249 256 261 263 265 267 268 268 268 268 268 268 266
96 95 95 94 87 82 80 77 74 74 75 77 81 81 81 81 80 78 76 76 76 76 77 79 85 94 101 106 113 115 110 104 98 106 171 189 188 188 188 193 199 203 208 211 212 215 222 227 230 230 232 236 242 249 255 259 264 269 272 272 271 269 269 269 270 271 271 271 271 269 266 262 259 260 263 265 267 269 270 269 269 270 270 269 268
97 95 93 92 90 86 84 81 79 77 74 74 76 77 77 78 80 82 82 81 80 81 82 81 82 85 89 91 95 100 100 95 91 93 102 113 122 142 162 177 191 205 215 217 215 217 220 224 227 229 232 238 246 253 260 266 272 277 280 280 276 271 272 274 274 276 277 276 276 277 279 282 282 277 274 272 270 271 273 275 275 275 274 273 271
96 95 94 94 93 90 88 85 83 80 75 71 71 74 77 76 75 76 78 79 81 82 83 84 84 82 81 82 82 84 86 89 90 91 92 95 96 99 105 112 121 145 188 197 196 197 201 208 217 224 229 237 244 251 258 267 275 280 281 280 274 267 260 254 249 261 277 282 287 296 307 313 309 299 289 283 282 282 283 283 281 281 281 279 276
96 95 95 94 92 89 88 85 83 81 77 73 68 66 68 70 72 73 73 74 76 77 78 82 83 81 80 81 81 80 80 84 86 87 87 88 90 92 93 93 94 95 98 111 126 130 136 155 177 187 191 201 209 214 223 238 250 259 262 260 255 248 242 242 243 342 327 314 318 333 338 332 323 316 310 305 302 303 305 303 296 289 288 282 274
95 93 93 92 89 86 85 83 82 80 79 78 72 66 64 64 66 69 69 70 70 70 71 75 78 79 80 82 83 83 83 84 86 87 88 89 88 90 93 94 94 93 89 86 88 89 88 95 122 142 140 132 133 144 167 186 200 216 231 240 243 233 202 340 354 21 1 336 344 4 7 7 9 4 355 352 349 350 356 352 344 337 330 318 299
95 93 92 91 88 86 85 82 80 78 78 78 78 78 78 77 74 74 74 71 70 68 67 67 69 72 75 78 80 80 80 81 83 84 86 88 89 89 90 92 94 99 99 92 79 72 68 70 111 147 133 113 106 109 128 146 157 170 319 308 288 306 37 48 42 29 15 21 49 39 27 31 40 36 18 2 357 10 34 34 23 14 7 10 12
96 95 94 92 90 88 86 82 79 77 77 76 76 76 78 77 77 79 77 71 66 65 66 67 67 67 68 70 73 76 76 73 71 72 74 78 81 82 82 84 86 93 104 107 104 105 105 96 134 142 130 121 125 111 100 92 77 65 52 42 31 20 32 46 55 54 66 85 68 42 23 34 49 46 31 12 6 24 42 42 45 43 26 25 38
99 97 95 94 94 92 89 86 82 78 76 75 74 73 73 73 71 72 74 71 68 69 71 70 69 69 69 68 69 75 80 76 71 71 73 74 77 78 76 78 81 83 87 92 96 102 97 37 37 92 109 121 124 69 66 72 77 85 84 69 64 65 63 69 80 84 83 79 65 47 40 49 47 42 39 32 26 34 38 34 42 52 38 34 59
99 98 96 94 93 91 91 88 86 84 81 77 75 72 70 71 70 68 69 69 68 70 71 69 72 81 84 78 72 75 83 89 89 87 83 78 77 79 79 81 82 82 83 85 85 86 79 63 53 52 49 69 72 61 62 71 77 84 88 84 84 89 95 100 102 97 87 78 75 74 70 63 53 46 46 45 40 39 41 39 36 43 49 50 56
Height
1528 1530 1532 1534 1536 1538 1539 1540 1542 1543 1544 1545 1546 1547 1548 1549 1550 1551 1553 1554 1555 1556 1558 1559 1561 1562 1563 1564 1565 1566 1568 1569 1570 1572 1573 1573 1573 1574 1575 1576 1577 1578 1578 1579 1580 1581 1582 1583 1583 1583 1584 1584 1584 1584 1585 1585 1585 1586 1586 1586 1586 1587 1587 1588 1588 1589 1588 1588 1588 1589 1590 1590 1590 1590 1590 1591 1591 1590 1587 1586 1586 1585 1585 1585 1585
1527 1530 1531 1533 1536 1537 1539 1540 1541 1543 1544 1545 1546 1547 1548 1549 1550 1552 1553 1554 1555 1557 1558 1560 1561 1562 1564 1565 1566 1567 1568 1569 1571 1572 1573 1573 1573 1574 1575 1576 1577 1578 1579 1579 1580 1581 1582 1582 1583 1583 1584 1584 1584 1584 1584 1584 1585 1586 1586 1587 1587 1587 1587 1587 1588 1588 1588 1588 1588 1588 1589 1590 1590 1590 1589 1591 1591 1590 1588 1587 1586 1586 1585 1585 1584
1525 1529 1531 1533 1535 1536 1538 1539 1541 1543 1543 1545 1546 1547 1548 1549 1550 1552 1553 1554 1556 1557 1558 1560 1561 1562 1564 1566 1567 1568 1569 1570 1571 1572 1574 1574 1574 1575 1575 1576 1577 1578 1579 1580 1580 1581 1582 1582 1583 1583 1583 1583 1584 1584 1584 1584 1585 1586 1586 1587 1587 1587 1586 1587 1587 1587 1587 1587 1587 1587 1588 1589 1589 1589 1589 1589 1589 1590 1590 1589 1587 1586 1586 1586 1585
1524 1527 1530 1532 1534 1535 1537 1538 1540 1542 1543 1544 1545 1546 1548 1549 1550 1551 1553 1554 1556 1557 1558 1560 1561 1562 1564 1566 1567 1568 1570 1571 1572 1573 1574 1574 1575 1575 1576 1576 1577 1579 1579 1580 1581 1581 1581 1582 1583 1583 1583 1583 1584 1584 1584 1585 1585 1586 1586 1586 1586 1586 1586 1586 1586 1586 1587 1587 1587 1586 1586 1587 1587 1588 1588 1588 1589 1589 1589 1588 1588 1587 1587 1587 1586
1524 1526 1528 1530 1532 1534 1536 1538 1539 1540 1542 1544 1545 1546 1547 1548 1549 1551 1553 1554 1556 1557 1558 1560 1561 1562 1563 1565 1567 1568 1569 1571 1572 1573 1574 1575 1575 1576 1576 1577 1578 1579 1579 1580 1581 1581 1581 1581 1582 1583 1583 1583 1583 1584 1584 1585 1585 1586 1586 1586 1586 1586 1585 1586 1586 1586 1586 1586 1586 1586 1586 1587 1587 1587 1588 1588 1589 1587 1586 1588 1589 1589 1589 1587 1586
1524 1525 1527 1529 1531 1533 1535 1537 1538 1540 1541 1543 1544 1546 1547 1548 1549 1551 1552 1554 1556 1557 1558 1559 1560 1562 1563 1565 1566 1568 1569 1571 1572 1573 1574 1575 1576 1576 1577 1577 1578 1579 1579 1580 1581 1580 1580 1581 1581 1582 1583 1583 1583 1584 1584 1584 1585 1585 1585 1585 1585 1585 1585 1585 1586 1585 1585 1585 1586 1586 1586 1587 1587 1587 1586 1586 1587 1587 1586 1588 1589 1589 1589 1588 1586
1523 1524 1526 1528 1530 1532 1534 1536 1537 1539 1540 1542 1544 1545 1547 1547 1548 1550 1552 1554 1555 1556 1558 1559 1560 1562 1563 1565 1567 1568 1569 1571 1572 1573 1574 1575 1575 1576 1577 1578 1578 1579 1579 1579 1580 1580 1580 1581 1581 1582 1583 1583 1583 1583 1584 1584 1585 1585 1585 1585 1584 1585 1585 1584 1585 1585 1585 1584 1584 1586 1586 1586 1585 1585 1586 1586 1586 1586 1586 1587 1587 1587 1588 1588 1587
1521 1523 1524 1527 1529 1531 1533 1535 1536 1538 1540 1541 1543 1545 1546 1547 1548 1550 1551 1553 1555 1556 1557 1559 1560 1562 1563 1565 1567 1568 1569 1570 1571 1573 1574 1575 1575 1576 1577 1578 1578 1578 1579 1579 1579 1580 1580 1581 1581 1581 1582 1583 1583 1583 1584 1584 1584 1584 1584 1584 1584 1584 1584 1584 1584 1584 1584 1584 1583 1584 1586 1585 1585 1584 1585 1585 1584 1584 1584 1585 1586 1585 1586 1588 1588
1519 1521 1523 1525 1527 1530 1532 1533 1535 1537 1538 1540 1542 1544 1545 1546 1547 1549 1551 1553 1554 1556 1557 1559 1560 1562 1563 1565 1566 1568 1569 1570 1571 1572 1573 1574 1575 1576 1577 1578 1578 1578 1578 1579 1579 1580 1580 1580 1581 1581 1582 1582 1583 1583 1583 1583 1583 1583 1583 1583 1584 1584 1584 1584 1584 1583 1584 1584 1583 1584 1585 1585 1584 1583 1583 1582 1582 1582 1583 1583 1583 1584 1584 1585 1585
1518 1519 1521 1524 1525 1528 1530 1532 1534 1536 1537 1540 1541 1543 1544 1545 1546 1548 1550 1552 1554 1555 1557 1558 1560 1561 1563 1565 1566 1567 1569 1570 1571 1572 1572 1573 1574 1575 1576 1577 1578 1578 1578 1578 1579 1579 1580 1580 1581 1581 1581 1582 1582 1582 1583 1583 1583 1583 1583 1583 1583 1583 1584 1584 1584 1584 1584 1584 1584 1584 1584 1584 1583 1582 1581 1581 1580 1581 1581 1582 1582 1582 1583 1583 1583
1515 1517 1519 1522 1524 1526 1529 1530 1533 1535 1537 1539 1540 1542 1544 1545 1545 1547 1549 1551 1553 1554 1556 1558 1559 1561 1562 1564 1565 1566 1568 1569 1570 1571 1572 1572 1574 1575 1575 1576 1577 1578 1578 1578 1578 1579 1579 1579 1580 1581 1582 1582 1582 1582 1582 1582 1582 1582 1583 1583 1583 1583 1583 1583 1584 1584 1584 1584 1584 1584 1583 1582 1582 1581 1580 1580 1581 1581 1581 1582 1581 1581 1582 1582 1582
1513 1515 1518 1520 1523 1525 1526 1529 1531 1533 1536 1537 1539 1541 1543 1544 1545 1546 1548 1550 1552 1554 1555 1557 1559 1560 1562 1563 1565 1566 1567 1568 1569 1570 1571 1572 1573 1574 1575 1575 1576 1577 1578 1578 1578 1579 1579 1579 1580 1581 1581 1581 1581 1581 1582 1581 1581 1581 1582 1582 1582 1582 1582 1582 1583 1583 1583 1583 1583 1582 1582 1581 1580 1580 1580 1580 1581 1582 1582 1582 1581 1581 1581 1580 1580
1510 1512 1515 1518 1521 1523 1525 1527 1529 1532 1534 1536 1538 1540 1541 1543 1544 1545 1547 1549 1551 1553 1555 1557 1558 1560 1561 1562 1564 1565 1567 1568 1569 1570 1570 1571 1573 1574 1574 1575 1575 1576 1577 1578 1578 1579 1579 1579 1579 1580 1580 1580 1580 1581 1580 1581 1581 1581 1581 1581 1582 1582 1581 1581 1581 1582 1582 1582 1582 1582 1581 1581 1580 1580 1580 1580 1580 1581 1581 1580 1581 1580 1579 1578 1579
1508 1510 1513 1516 1518 1521 1523 1525 1528 1530 1532 1535 1537 1539 1540 1542 1543 1544 1546 1548 1550 1552 1554 1556 1557 1559 1561 1562 1563 1564 1566 1567 1568 1569 1570 1571 1572 1573 1574 1574 1575 1575 1576 1577 1577 1578 1579 1578 1578 1578 1579 1579 1579 1580 1580 1580 1580 1580 1580 1581 1581 1580 1580 1580 1580 1581 1581 1581 1582 1581 1581 1581 1580 1579 1580 1580 1579 1580 1580 1580 1580 1580 1578 1577 1577
1506 1508 1510 1513 1515 1519 1521 1523 1526 1528 1530 1533 1535 1537 1539 1541 1542 1543 1545 1546 1548 1550 1552 1554 1556 1558 1560 1561 1562 1564 1565 1566 1567 1569 1570 1571 1572 1573 1573 1574 1575 1575 1576 1576 1577 1577 1578 1577 1577 1577 1578 1578 1578 1579 1579 1579 1579 1579 1579 1580 1580 1580 1579 1579 1579 1580 1580 1580 1581 1581 1580 1580 1579 1579 1579 1578 1578 1578 1578 1579 1579 1578 1578 1577 1577
1503 1505 1508 1511 1513 1516 1519 1521 1524 1526 1529 1531 1533 1535 1537 1539 1541 1542 1544 1545 1547 1549 1551 1553 1555 1557 1558 1560 1562 1563 1564 1566 1567 1568 1569 1570 1571 1572 1573 1573 1574 1575 1575 1575 1576 1576 1576 1576 1576 1577 1577 1577 1578 1578 1578 1579 1578 1578 1579 1579 1579 1579 1579 1579 1579 1579 1579 1579 1579 1579 1579 1579 1578 1578 1577 1577 1577 1576 1577 1578 1578 1578 1577 1576 1576
1501 1503 1505 1508 1511 1514 1517 1520 1522 1524 1527 1528 1531 1534 1535 1538 1539 1541 1543 1544 1546 1548 1550 1552 1554 1556 1557 1559 1561 1562 1563 1565 1566 1567 1568 1569 1570 1571 1572 1572 1573 1574 1574 1575 1575 1575 1575 1575 1576 1576 1576 1576 1577 1577 1577 1577 1578 1578 1578 1578 1578 1578 1578 1578 1578 1578 1578 1578 1578 1578 1578 1578 1577 1576 1576 1576 1576 1576 1576 1577 1577 1577 1577 1576 1576
1499 1500 1503 1506 1508 1512 1515 1517 1520 1522 1524 1526 1529 1532 1534 1536 1538 1540 1541 1543 1545 1547 1549 1551 1553 1555 1556 1557 1559 1561 1563 1564 1566 1567 1568 1568 1569 1570 1571 1571 1572 1573 1573 1574 1575 1574 1574 1574 1575 1575 1575 1575 1576 1576 1576 1576 1576 1577 1577 1577 1577 1577 1577 1577 1577 1577 1577 1577 1577 1577 1577 1577 1576 1575 1576 1576 1576 1576 1576 1576 1577 1577 1576 1576 1575
1497 1498 1501 1503 1506 1510 1512 1515 1517 1520 1522 1525 1528 1531 1533 1535 1537 1539 1540 1542 1545 1546 1548 1550 1551 1554 1555 1556 1558 1560 1561 1563 1564 1566 1566 1567 1568 1569 1570 1570 1571 1572 1572 1573 1573 1574 1574 1573 1573 1574 1574 1574 1575 1575 1575 1575 1575 1576 1576 1576 1576 1576 1576 1576 1576 1576 1577 1577 1576 1576 1576 1576 1575 1575 1575 1575 1575 1576 1576 1576 1576 1576 1576 1575 1575
1497 1498 1500 1502 1505 1508 1510 1513 1515 1518 1520 1523 1526 1529 1531 1534 1535 1537 1539 1541 1544 1546 1548 1549 1551 1553 1554 1555 1557 1558 1560 1561 1563 1564 1565 1566 1567 1567 1569 1569 1570 1570 1571 1571 1571 1572 1573 1572 1572 1573 1574 1574 1574 1574 1574 1574 1574 1574 1575 1575 1576 1575 1575 1575 1575 1576 1576 1577 1576 1576 1576 1575 1575 1575 1575 1575 1575 1575 1576 1576 1576 1575 1575 1575 1574
1497 1498 1499 1501 1504 1506 1509 1512 1514 1517 1519 1521 1525 1527 1530 1532 1534 1536 1538 1540 1542 1544 1546 1548 1549 1551 1552 1554 1555 1556 1558 1559 1561 1563 1563 1565 1566 1566 1567 1568 1568 1569 1570 1570 1570 1571 1572 1572 1572 1573 1573 1573 1573 1573 1574 1573 1573 1573 1573 1574 1574 1574 1574 1574 1574 1574 1575 1576 1575 1575 1575 1575 1575 1575 1575 1575 1575 1575 1575 1575 1575 1575 1575 1575 1574
1497 1498 1499 1500 1502 1504 1506 1509 1512 1515 1517 1519 1523 1525 1528 1530 1532 1534 1536 1538 1541 1543 1545 1546 1548 1550 1551 1553 1554 1555 1557 1558 1559 1561 1562 1563 1564 1565 1566 1566 1567 1568 1568 1569 1570 1570 1571 1571 1572 1572 1572 1573 1572 1572 1572 1572 1572 1572 1572 1572 1573 1572 1572 1572 1573 1573 1573 1574 1575 1574 1574 1574 1575 1575 1575 1575 1575 1575 1575 1574 1575 1575 1574 1574 1574
1498 1498 1498 1499 1500 1502 1504 1507 1510 1513 1515 1518 1521 1523 1526 1528 1531 1533 1534 1537 1539 1541 1543 1545 1546 1548 1549 1551 1553 1554 1555 1556 1557 1559 1560 1561 1562 1563 1564 1564 1565 1566 1567 1568 1568 1569 1570 1570 1570 1571 1571 1571 1571 1571 1571 1571 1571 1571 1571 1571 1572 1572 1572 1572 1572 1572 1573 1573 1574 1574 1574 1574 1575 1575 1575 1575 1575 1575 1574 1574 1574 1574 1574 1574 1574
1499 1498 1497 1498 1499 1501 1503 1505 1509 1512 1514 1516 1519 1522 1524 1527 1529 1532 1533 1535 1538 1539 1541 1543 1545 1547 1548 1549 1551 1552 1554 1554 1556 1557 1558 1559 1560 1561 1562 1562 1563 1564 1565 1566 1567 1568 1568 1568 1569 1569 1570 1570 1570 1570 1570 1570 1570 1570 1570 1570 1570 1571 1571 1571 1572 1572 1572 1573 1573 1573 1573 1573 1574 1574 1574 1574 1574 1574 1573 1573 1574 1573 1574 1574 1574
1497 1496 1495 1495 1497 1498 1501 1505 1508 1510 1512 1515 1518 1521 1523 1525 1527 1530 1532 1534 1536 1538 1540 1541 1544 1545 1546 1548 1549 1551 1552 1553 1554 1556 1557 1558 1559 1560 1561 1561 1562 1562 1563 1564 1565 1566 1566 1567 1567 1568 1568 1568 1568 1568 1568 1568 1569 1569 1569 1569 1569 1570 1570 1570 1571 1571 1571 1571 1572 1572 1572 1572 1572 1572 1573 1573 1573 1573 1572 1572 1573 1573 1573 1573 1573
1496 1495 1495 1496 1497 1498 1501 1504 1506 1510 1512 1514 1517 1520 1522 1524 1526 1528 1530 1532 1533 1536 1538 1540 1542 1544 1544 1546 1547 1549 1549 1550 1552 1553 1555 1557 1558 1558 1559 1559 1560 1560 1561 1562 1563 1563 1564 1565 1565 1566 1567 1567 1567 1566 1566 1566 1567 1567 1568 1568 1568 1569 1569 1569 1570 1570 1570 1570 1570 1571 1571 1571 1571 1571 1572 1571 1571 1572 1571 1571 1572 1572 1573 1573 1573
1497 1497 1497 1498 1499 1500 1501 1503 1506 1509 1512 1514 1516 1520 1522 1523 1525 1527 1529 1530 1532 1534 1536 1538 1540 1542 1543 1543 1545 1546 1546 1547 1549 1550 1552 1553 1555 1556 1557 1558 1559 1559 1559 1559 1561 1561 1561 1563 1563 1564 1564 1565 1565 1565 1564 1564 1565 1565 1566 1567 1567 1568 1568 1568 1569 1569 1569 1569 1570 1570 1570 1569 1569 1570 1570 1570 1571 1571 1570 1570 1571 1571 1572 1572 1573
1500 1500 1500 1499 1500 1501 1502 1503 1506 1509 1511 1513 1515 1518 1521 1522 1524 1526 1527 1529 1530 1532 1534 1536 1537 1539 1541 1541 1543 1543 1544 1546 1547 1548 1549 1549 1551 1552 1552 1553 1555 1556 1557 1557 1558 1559 1560 1560 1561 1562 1562 1562 1562 1563 1563 1562 1562 1563 1564 1565 1566 1566 1567 1567 1568 1568 1568 1568 1569 1569 1569 1568 1568 1568 1569 1569 1569 1570 1569 1569 1570 1570 1570 1571 1571
1501 1502 1501 1500 1501 1502 1502 1504 1506 1508 1510 1512 1514 1516 1518 1520 1522 1524 1525 1527 1528 1530 1532 1534 1535 1537 1538 1539 1540 1541 1542 1544 1545 1545 1547 1548 1549 1549 1549 1550 1550 1553 1555 1556 1556 1557 1558 1558 1559 1559 1560 1560 1560 1561 1561 1561 1561 1562 1562 1562 1564 1565 1565 1566 1566 1566 1566 1567 1567 1567 1567 1567 1567 1567 1567 1568 1568 1568 1568 1568 1569 1568 1568 1569 1570
1502 1502 1502 1502 1502 1502 1504 1504 1505 1507 1509 1511 1513 1514 1516 1518 1520 1522 1524 1525 1527 1528 1529 1531 1533 1534 1536 1537 1537 1538 1540 1541 1542 1543 1544 1545 1547 1548 1549 1550 1550 1550 1553 1554 1555 1556 1556 1557 1557 1557 1557 1558 1559 1558 1557 1558 1559 1561 1561 1561 1562 1563 1563 1564 1564 1564 1564 1565 1565 1566 1566 1566 1565 1565 1566 1566 1566 1566 1566 1566 1566 1566 1566 1567 1568
1503 1504 1503 1503 1503 1504 1505 1505 1506 1507 1508 1509 1511 1513 1515 1517 1518 1520 1522 1523 1525 1526 1527 1529 1530 1531 1533 1534 1534 1535 1537 1537 1538 1539 1540 1542 1544 1545 1546 1548 1549 1550 1551 1552 1553 1555 1555 1556 1556 1556 1556 1556 1555 1554 1554 1555 1557 1558 1559 1560 1560 1561 1561 1562 1562 1562 1563 1563 1564 1564 1564 1564 1564 1564 1564 1564 1565 1565 1565 1564 1564 1564 1564 1565 1567
1504 1504 1504 1504 1505 1505 1505 1506 1506 1506 1507 1508 1509 1511 1513 1515 1516 1518 1519 1521 1522 1523 1525 1526 1527 1529 1529 1530 1531 1532 1533 1534 1535 1536 1537 1539 1540 1542 1543 1544 1545 1547 1548 1549 1551 1553 1554 1555 1556 1556 1555 1552 1550 1551 1554 1555 1556 1556 1557 1558 1558 1559 1559 1560 1561 1561 1562 1562 1563 1563 1563 1562 1562 1563 1563 1562 1562 1562 1562 1562 1562 1562 1563 1563 1564
1505 1504 1506 1506 1506 1506 1507 1507 1507 1507 1507 1508 1508 1510 1512 1513 1515 1516 1517 1518 1519 1520 1522 1523 1524 1525 1526 1527 1528 1529 1530 1532 1533 1534 1535 1536 1537 1538 1539 1540 1542 1544 1545 1547 1548 1550 1551 1552 1553 1552 1550 1547 1548 1551 1554 1554 1555 1556 1557 1556 1556 1557 1557 1557 1558 1559 1560 1561 1561 1562 1562 1561 1561 1561 1561 1561 1560 1561 1560 1560 1560 1560 1561 1561 1562
1505 1505 1508 1509 1507 1508 1509 1508 1508 1508 1508 1509 1509 1511 1512 1513 1514 1515 1515 1516 1517 1518 1519 1520 1521 1523 1524 1524 1525 1526 1528 1529 1530 1531 1532 1533 1534 1535 1536 1537 1538 1540 1542 1544 1545 1547 1549 1550 1549 1548 1547 1546 1549 1552 1553 1552 1552 1553 1555 1555 1555 1556 1555 1554 1555 1557 1558 1559 1559 1560 1560 1560 1559 1559 1559 1559 1559 1559 1559 1558 1558 1558 1559 1560 1560
1507 1507 1510 1511 1509 1509 1510 1510 1510 1510 1510 1511 1511 1511 1512 1512 1513 1514 1514 1515 1516 1516 1517 1518 1519 1521 1521 1522 1523 1524 1525 1526 1527 1528 1529 1530 1531 1532 1533 1534 1535 1537 1539 1541 1543 1544 1546 1547 1548 1548 1547 1547 1548 1551 1552 1552 1552 1552 1553 1553 1554 1554 1554 1553 1553 1555 1556 1557 1557 1558 1558 1558 1558 1557 1557 1556 1557 1557 1557 1557 1556 1556 1558 1559 1559
1510 1511 1513 1513 1511 1510 1511 1511 1511 1511 1511 1511 1511 1511 1512 1512 1512 1513 1513 1514 1514 1515 1515 1516 1517 1518 1519 1520 1521 1522 1523 1524 1525 1525 1526 1527 1528 1529 1531 1532 1533 1535 1537 1538 1540 1541 1542 1544 1545 1546 1547 1547 1548 1550 1551 1551 1551 1551 1551 1552 1552 1552 1552 1552 1552 1553 1554 1554 1555 1555 1556 1556 1555 1554 1554 1554 1555 1555 1555 1555 1555 1556 1557 1557 1557
1513 1514 1514 1514 1513 1512 1512 1512 1511 1510 1510 1509 1510 1510 1510 1511 1511 1511 1511 1511 1512 1513 1513 1514 1515 1516 1517 1518 1519 1520 1521 1521 1522 1522 1523 1524 1525 1526 1528 1530 1532 1533 1535 1536 1537 1538 1539 1541 1543 1544 1545 1546 1546 1547 1547 1548 1549 1549 1550 1551 1550 1550 1550 1551 1551 1552 1553 1553 1552 1553 1553 1552 1551 1551 1552 1553 1553 1553 1553 1554 1555 1555 1555 1555 1555
1515 1515 1515 1515 1515 1515 1514 1514 1512 1511 1510 1509 1509 1509 1508 1509 1509 1509 1509 1510 1510 1511 1512 1513 1514 1514 1515 1515 1516 1517 1518 1519 1519 1519 1520 1521 1523 1525 1526 1527 1529 1531 1532 1534 1535 1536 1537 1539 1541 1542 1543 1543 1544 1545 1545 1545 1546 1547 1548 1549 1549 1549 1550 1551 1552 1552 1553 1552 1551 1550 1550 1549 1549 1549 1550 1551 1551 1551 1552 1553 1554 1554 1553 1552 1552
1517 1517 1517 1517 1517 1517 1516 1516 1514 1512 1511 1510 1509 1509 1509 1509 1509 1509 1510 1510 1511 1511 1512 1512 1513 1513 1514 1514 1514 1515 1516 1517 1517 1518 1518 1519 1519 1520 1522 1524 1527 1529 1530 1532 1533 1535 1536 1536 1538 1539 1540 1540 1541 1542 1543 1543 1543 1545 1546 1546 1547 1548 1549 1550 1551 1552 1552 1552 1551 1550 1548 1548 1548 1548 1548 1548 1548 1548 1549 1550 1550 1550 1550 1549 1549
1520 1519 1519 1519 1519 1519 1519 1518 1517 1516 1514 1513 1512 1511 1510 1510 1511 1511 1511 1511 1512 1512 1512 1513 1513 1513 1513 1513 1513 1513 1514 1515 1516 1517 1517 1517 1516 1516 1518 1522 1525 1527 1529 1530 1531 1533 1534 1534 1536 1537 1538 1538 1539 1540 1541 1541 1541 1543 1543 1543 1545 1546 1547 1547 1548 1549 1550 1551 1550 1549 1548 1547 1546 1545 1545 1545 1545 1545 1546 1546 1546 1546 1545 1545 1545
1522 1521 1521 1522 1522 1522 1521 1521 1520 1519 1518 1517 1515 1513 1513 1513 1513 1513 1513 1514 1514 1513 1513 1513 1513 1513 1513 1513 1512 1513 1514 1515 1516 1516 1516 1516 1515 1515 1516 1520 1523 1525 1526 1527 1528 1530 1532 1533 1534 1535 1536 1537 1537 1537 1538 1539 1539 1540 1541 1541 1542 1543 1544 1544 1544 1546 1547 1547 1546 1546 1546 1545 1544 1543 1542 1542 1542 1542 1542 1542 1542 1541 1540 1541 1541
1524 1524 1524 1524 1524 1524 1524 1523 1523 1522 1521 1520 1518 1516 1516 1516 1515 1515 1517 1517 1516 1516 1515 1514 1514 1514 1514 1514 1514 1514 1515 1515 1516 1516 1516 1516 1516 1515 1517 1519 1522 1524 1525 1525 1526 1528 1530 1531 1533 1534 1534 1535 1535 1535 1536 1536 1537 1538 1538 1538 1539 1540 1541 1541 1541 1542 1543 1543 1543 1542 1542 1542 1541 1541 1540 1539 1539 1539 1538 1538 1537 1536 1537 1537 1537
1525 1526 1526 1526 1527 1527 1526 1526 1525 1525 1524 1523 1522 1520 1519 1519 1518 1519 1520 1520 1519 1519 1518 1517 1517 1516 1517 1516 1516 1516 1516 1516 1516 1517 1517 1517 1517 1517 1518 1520 1522 1523 1524 1525 1526 1527 1528 1530 1531 1532 1532 1533 1533 1533 1533 1534 1535 1535 1535 1536 1536 1537 1537 1537 1537 1538 1539 1540 1540 1539 1539 1539 1538 1538 1537 1536 1536 1536 1535 1534 1534 1533 1533 1533 1532
1527 1528 1528 1528 1529 1528 1528 1528 1528 1527 1527 1526 1525 1524 1523 1522 1522 1523 1523 1522 1522 1521 1520 1520 1520 1520 1520 1519 1518 1518 1518 1518 1518 1519 1519 1519 1519 1519 1520 1521 1522 1523 1524 1524 1525 1526 1527 1528 1530 1530 1531 1531 1531 1531 1532 1532 1533 1533 1533 1534 1534 1535 1535 1534 1534 1535 1537 1537 1538 1537 1537 1536 1536 1536 1535 1534 1534 1533 1532 1532 1531 1530 1530 1529 1529
1529 1530 1530 1530 1531 1530 1530 1530 1529 1530 1529 1529 1529 1528 1527 1527 1526 1526 1525 1525 1524 1523 1522 1522 1522 1522 1522 1522 1521 1521 1520 1520 1520 1521 1520 1521 1521 1521 1521 1522 1522 1524 1525 1525 1526 1527 1527 1528 1529 1530 1530 1530 1530 1530 1531 1531 1531 1531 1532 1532 1533 1533 1532 1532 1532 1534 1535 1536 1536 1536 1536 1535 1535 1535 1534 1533 1532 1531 1530 1529 1529 1528 1528 1527 1527
1531 1532 1532 1532 1532 1532 1532 1532 1532 1532 1532 1531 1531 1530 1529 1530 1530 1529 1528 1527 1526 1525 1524 1524 1524 1524 1524 1524 1524 1524 1524 1523 1523 1523 1523 1523 1523 1523 1523 1524 1524 1526 1527 1527 1527 1528 1529 1529 1530 1530 1530 1529 1529 1529 1530 1530 1530 1530 1531 1531 1532 1532 1531 1531 1532 1533 1534 1535 1535 1535 1535 1535 1534 1534 1533 1531 1530 1529 1529 1528 1527 1527 1527 1526 1525
1533 1533 1533 1534 1533 1533 1533 1533 1534 1534 1534 1533 1533 1532 1532 1532 1532 1532 1531 1529 1529 1528 1528 1527 1527 1527 1527 1527 1526 1526 1526 1526 1526 1526 1526 1526 1526 1526 1526 1526 1527 1528 1529 1529 1530 1530 1531 1531 1531 1530 1530 1529 1528 1529 1529 1529 1529 1530 1530 1531 1531 1531 1530 1531 1532 1533 1534 1535 1536 1536 1536 1535 1534 1533 1532 1531 1530 1529 1529 1528 1528 1527 1526 1525 1524
1534 1534 1535 1535 1535 1535 1535 1535 1535 1535 1535 1535 1535 1535 1535 1535 1535 1534 1533 1532 1531 1531 1531 1531 1530 1530 1530 1530 1530 1529 1529 1529 1529 1528 1528 1528 1528 1528 1528 1529 1529 1529 1530 1531 1531 1532 1532 1532 1532 1531 1530 1530 1530 1530 1530 1530 1530 1530 1530 1531 1531 1531 1531 1531 1532 1533 1534 1536 1536 1537 1536 1535 1534 1532 1531 1531 1531 1530 1529 1529 1529 1528 1527 1526 1525
1535 1535 1535 1535 1536 1536 1536 1537 1537 1537 1537 1537 1536 1537 1537 1537 1536 1536 1535 1535 1534 1534 1534 1534 1534 1534 1534 1533 1533 1532 1532 1531 1531 1531 1531 1530 1530 1531 1531 1531 1531 1531 1531 1531 1532 1533 1533 1533 1532 1532 1531 1531 1531 1531 1531 1531 1530 1530 1531 1531 1532 1532 1531 1531 1532 1534 1535 1536 1536 1536 1536 1536 1535 1534 1533 1532 1531 1531 1530 1530 1530 1529 1528 1527 1526
1536 1536 1536 1536 1537 1537 1538 1538 1539 1539 1539 1539 1539 1539 1539 1539 1538 1538 1537 1537 1537 1537 1538 1538 1537 1537 1537 1536 1536 1535 1534 1534 1533 1533 1533 1533 1533 1533 1533 1533 1533 1533 1533 1533 1533 1533 1533 1533 1533 1533 1532 1532 1532 1532 1531 1531 1531 1531 1531 1531 1532 1532 1532 1532 1534 1535 1536 1536 1536 1537 1538 1537 1537 1536 1535 1534 1533 1532 1532 1531 1531 1530 1529 1528 1527
1537 1537 1537 1538 1538 1539 1539 1539 1539 1540 1540 1541 1541 1541 1541 1540 1540 1540 1539 1539 1539 1539 1539 1539 1538 1538 1538 1538 1538 1537 1536 1536 1535 1535 1535 1535 1535 1535 1535 1534 1535 1534 1534 1534 1534 1534 1534 1534 1534 1533 1533 1532 1532 1532 1532 1532 1531 1531 1532 1532 1532 1533 1533 1534 1535 1536 1536 1536 1537 1538 1538 1537 1537 1537 1536 1535 1535 1534 1533 1533 1532 1531 1530 1529 1528